TimeCDT,TemperatureF,Dew PointF,Humidity,Sea Level PressureIn,VisibilityMPH,Wind Direction,Wind SpeedMPH,Gust SpeedMPH,PrecipitationIn,Events,Conditions,WindDirDegrees,DateUTC
12:53 AM,46.9,32.0,56,30.15,10.0,SSW,8.1,-,N/A,,Clear,200,2013-03-15 05:53:00
1:53 AM,48.0,33.1,56,30.14,10.0,SSW,10.4,-,N/A,,Clear,200,2013-03-15 06:53:00
2:53 AM,48.0,33.1,56,30.12,10.0,South,9.2,-,N/A,,Clear,190,2013-03-15 07:53:00
3:53 AM,46.9,33.1,59,30.09,10.0,SSW,9.2,-,N/A,,Clear,200,2013-03-15 08:53:00
4:53 AM,46.0,34.0,63,30.09,10.0,SSW,10.4,-,N/A,,Clear,200,2013-03-15 09:53:00
5:53 AM,45.0,35.1,68,30.09,10.0,SSW,8.1,-,N/A,,Clear,210,2013-03-15 10:53:00
6:53 AM,46.0,36.0,68,30.08,10.0,SW,9.2,-,N/A,,Clear,220,2013-03-15 11:53:00
7:53 AM,48.9,37.9,66,30.08,10.0,SSW,8.1,-,N/A,,Clear,210,2013-03-15 12:53:00
8:53 AM,55.9,39.9,55,30.08,10.0,SW,9.2,-,N/A,,Clear,220,2013-03-15 13:53:00
9:53 AM,62.1,42.1,48,30.08,10.0,WSW,13.8,-,N/A,,Clear,240,2013-03-15 14:53:00
10:53 AM,66.9,44.1,44,30.07,10.0,WSW,16.1,20.7,N/A,,Clear,250,2013-03-15 15:53:00
11:53 AM,71.1,45.0,39,30.04,10.0,WSW,13.8,19.6,N/A,,Clear,250,2013-03-15 16:53:00
12:53 PM,73.9,46.0,37,30.02,10.0,West,11.5,-,N/A,,Clear,260,2013-03-15 17:53:00
1:53 PM,75.9,46.0,35,29.99,10.0,WSW,11.5,-,N/A,,Clear,240,2013-03-15 18:53:00
2:53 PM,78.1,46.0,32,29.95,10.0,WSW,10.4,-,N/A,,Clear,240,2013-03-15 19:53:00
3:53 PM,78.1,46.0,32,29.93,10.0,WSW,20.7,31.1,N/A,,Clear,250,2013-03-15 20:53:00
4:53 PM,75.9,45.0,33,29.91,10.0,SW,16.1,21.9,N/A,,Clear,230,2013-03-15 21:53:00
5:53 PM,73.9,46.9,38,29.90,10.0,SW,13.8,-,N/A,,Clear,220,2013-03-15 22:53:00
6:53 PM,71.1,48.0,44,29.90,10.0,SW,12.7,21.9,N/A,,Clear,220,2013-03-15 23:53:00
7:53 PM,69.1,48.0,47,29.90,10.0,SSW,13.8,-,N/A,,Clear,210,2013-03-16 00:53:00
8:53 PM,68.0,48.0,49,29.89,10.0,SSW,12.7,20.7,N/A,,Clear,210,2013-03-16 01:53:00
9:53 PM,66.9,46.9,49,29.89,10.0,SSW,13.8,-,N/A,,Clear,210,2013-03-16 02:53:00
10:53 PM,66.0,46.9,50,29.88,10.0,SSW,15.0,-,N/A,,Clear,210,2013-03-16 03:53:00
11:53 PM,64.9,46.0,50,29.88,10.0,SW,12.7,-,N/A,,Clear,220,2013-03-16 04:53:00